GALAXY 35 (G-35)

Last updated on Thu Oct 30 2025 00:02:52 GMT+0000 (Coordinated Universal Time)

1 54741U 22170A 25302.49350360 -.00000153 00000+0 00000+0 0 9993 2 54741 0.0218 249.0189 0002099 331.5783 262.0642 1.00272787 10587
UTC large
Height (km)
Speed (km/s)
/
Latitude / Longitude
Inclination (degrees)
Orbital Period (minutes)
Azimuth
Elevation
Range (km)
Doppler Factor

Next 0 passes for location: London (51.5072 / 0.1276)

Sorry there are no passes over London.